Zurück zum Katalog

FENGYUN 1C DEB

AktivSSO
NORAD 30689·DEBRIS·🇨🇳 China

Gestartet May 10, 1999 von Taiyuan Satellite Launch Center

Loading…

Nächste Überflüge (nächste 24 Stunden)

TLE

AktuellSource: Space-Track

Epoche: Sep 14, 2026, 11:07 UTC

1 30689U 99025AQX 26257.46379846  .00000467  00000-0  26180-3 0  9997
2 30689  98.7338 241.2374 0111209  40.0718 110.5982 14.12158042  7734

Verfolge FENGYUN 1C DEB in Echtzeit mit AllMySat

Download on the App Store